NOAA 16 DEB

Satellite information

Favourite Embed

Satellite Type and Status

DEBRISIN ORBIT

Key statistics

Satellite NOAA 16 DEB at a glance.

Uptime

9215

Days in orbit

Revolutions

≈ 14.2

Per day

Orbit

SSO

Sun Synchronous Orbit

Inclination

98.9

Latest

Satellite identification and parameters

Extended collection of information and parameters for NOAA 16 DEB.

Object identification

Identified? True

Debris? True

Object name: NOAA 16 DEB

International designator: 2000-055FC

Object number (NORAD): 41252

Object ID (CCSDS): 41252

Country: UNITED STATES OF AMERICA (US)

Current information (Y/N): Y

RCS size: SMALL

Orbital parameters

Period: 101.506 minutes

Inclination: 98.9304 deg

SMA: 7208.1 km

Apoapsis: 867.453 km

Periapsis: 792.477 km

RAAN: 46.7197 deg

Eccentricy: 0.00520081

Argument of periapsis: 160.0299 deg

Mean anomaly: 200.2927 deg

Mean motion: 14.18637959 rev/day

Mean motion (dot): 0.00007994 rev/day2

B* drag term: 0.0038230807 1/REarth

Two-line elements (TLE)

Creation date: Dec. 12, 2025, 10:14 a.m.

Reference frame: TEME

Reference center: EARTH

Epoch: Dec. 12, 2025, 3:06 a.m. UTC

TLE line 0: 0 NOAA 16 DEB

TLE line 1: 1 41252U 00055FC 25346.12941568 .00007994 00000-0 38231-2 0 9998

TLE line 2: 2 41252 98.9304 46.7197 0052008 160.0299 200.2927 14.18637959513256

Live tracking on map

Real-time ground track for satellite NOAA 16 DEB.

In-orbit conjunctions

A list of the most updated potential collisions computed for object NOAA 16 DEB.

Target Orbit TCA Probability of collision Miss distance Type
METEOR 1-17 LEO 2025-04-19 11:03:26 0.0004959001 52.0 (m) PAYLOAD

Associated space launch

The NOAA K, L and M POES satellites begin the fifth generation of improved environmental monitoring in support of NOAA missions. The instrument payload has significant improvements and additions/deletions. The instrument changes have effected the spacecraft subsystems and data formats.

NOAA 16 DEB was lifted into orbit during the mission ‘Titan II SLV | NOAA 16’, on board a Titan II SLV space rocket.

The launch took place on Sept. 21, 2000, 10:22 a.m. from Space Launch Complex 4W.

For more information about the launch, click the button.

Launch to space Titan II SLV | NOAA 16
Titan II SLV | NOAA 16

Agency: N/A

Status: Launch Successful

Launch date: Sept. 21, 2000, 10:22 a.m. UTC

Rocket: Titan II SLV

Launch pad: Space Launch Complex 4W

Location: Vandenberg SFB, CA, USA

...

Latest news about this satellite

There are no fresh news available about this satellite. Check back as we update our databases every day.


Newsletter sign-up

Weekly statistics, charts and insights to help you stay on top of the space industry.